Altus AFB, OK

8:06 PM CST on December 03, 2016 (GMT -0600)
Altus Air Force Base

Weather History for KLTS - October, 2012

Change the Weather History Date:

Thursday, October 4, 2012

  Actual Average Record
Temperature  
Mean Temperature 64 °F -  
Max Temperature 69 °F 78 °F 95 °F (2007)
Min Temperature 59 °F 56 °F 38 °F (2014)
Degree Days  
Heating Degree Days 1    
Growing Degree Days 14 (Base 50)    
Moisture  
Dew Point 49 °F    
Average Humidity 63    
Maximum Humidity 91    
Minimum Humidity 53    
Precipitation  
Precipitation 0.00 in - - ()
Sea Level Pressure  
Sea Level Pressure 30.09 in    
Wind  
Wind Speed 13 mph (NNE)    
Max Wind Speed 29 mph    
Max Gust Speed 34 mph    
Visibility 10 miles    
Events      
Averages and records for this station are not official NWS values.
T = Trace of Precipitation, MM = Missing Value Source: NWS Daily Summary

Daily Weather History Graph

Daily Weather History Graph

Search for Another Location

Airport or City:

Trip Planner

Search our weather history database for the weather conditions in past years. The results will help you decide how hot, cold, wet, or windy it might be!

Date:

Astronomy

Oct. 04, 2012 Rise Set
Actual Time 7:34 AM CDT 7:16 PM CDT
Civil Twilight 7:09 AM CDT 7:41 PM CDT
Nautical Twilight 6:40 AM CDT 8:10 PM CDT
Astronomical Twilight 6:10 AM CDT 8:39 PM CDT
Moon 10:04 PM CDT 11:41 AM CDT
Length of Visible Light 12h 32m
Length of Day
11h 41m
Waning Gibbous, 82% of the Moon is Illuminated
Oct 4
Waning Gibbous
Oct 8
Last Quarter
Oct 15
New
Oct 21
First Quarter
Oct 29
Full

Hourly Weather History & Observations

Time (CDT) Temp. Dew Point Humidity Pressure Visibility Wind Dir Wind Speed Gust Speed Precip Events Conditions
12:55 AM 65.5 °F 55.2 °F 69% 29.92 in 10.0 mi SE 13.8 mph - N/A   Clear
1:55 AM 64.6 °F 55.4 °F 72% 29.90 in 10.0 mi SE 13.8 mph - N/A   Clear
2:55 AM 64.8 °F 55.4 °F 72% 29.91 in 10.0 mi SE 13.8 mph - N/A   Clear
3:55 AM 64.8 °F 55.8 °F 73% 29.91 in 10.0 mi SE 11.5 mph - N/A   Clear
4:55 AM 64.4 °F 56.1 °F 74% 29.92 in 10.0 mi SE 12.7 mph - N/A   Clear
5:55 AM 62.4 °F 55.9 °F 79% 29.94 in 10.0 mi ESE 10.4 mph - N/A   Clear
6:55 AM 59.7 °F 55.9 °F 87% 30.00 in 10.0 mi NE 5.8 mph - N/A   Clear
7:55 AM 59.5 °F 56.8 °F 91% 30.03 in 10.0 mi ENE 9.2 mph - N/A   Clear
8:55 AM 64.4 °F 59.0 °F 83% 30.07 in 10.0 mi NE 5.8 mph - N/A   Clear
9:55 AM 68.4 °F 59.9 °F 74% 30.09 in 10.0 mi Variable 3.5 mph - N/A   Clear
10:05 AM 69.8 °F 60.8 °F 73% 30.09 in 10.0 mi NE 3.5 mph - N/A   Mostly Cloudy
10:55 AM 60.4 °F 47.1 °F 61% 30.12 in 10.0 mi North 28.8 mph 34.5 mph N/A   Overcast
11:55 AM 59.0 °F 44.2 °F 58% 30.15 in 10.0 mi NNE 28.8 mph 33.4 mph N/A   Overcast
12:55 PM 59.4 °F 44.8 °F 58% 30.17 in 10.0 mi NNE 19.6 mph 28.8 mph N/A   Overcast
1:55 PM 59.7 °F 45.1 °F 59% 30.15 in 10.0 mi North 18.4 mph - N/A   Overcast
2:55 PM 59.5 °F 45.3 °F 59% 30.15 in 10.0 mi North 20.7 mph - N/A   Overcast
3:45 PM 60.8 °F 46.4 °F 59% 30.14 in 10.0 mi North 16.1 mph - N/A   Overcast
3:55 PM 60.6 °F 45.7 °F 58% 30.14 in 10.0 mi North 17.3 mph - N/A   Overcast
4:55 PM 61.3 °F 45.5 °F 56% 30.14 in 10.0 mi North 16.1 mph - N/A   Overcast
5:55 PM 61.7 °F 45.5 °F 55% 30.14 in 10.0 mi NNE 15.0 mph - N/A   Overcast
6:55 PM 62.1 °F 45.0 °F 53% 30.14 in 10.0 mi NNE 13.8 mph - N/A   Overcast
7:55 PM 61.5 °F 45.0 °F 55% 30.14 in 10.0 mi North 12.7 mph - N/A   Overcast
8:15 PM 60.8 °F 44.6 °F 55% 30.14 in 10.0 mi NNE 11.5 mph - N/A   Overcast
8:55 PM 61.3 °F 44.8 °F 55% 30.14 in 10.0 mi North 11.5 mph - N/A   Overcast
9:07 PM 60.8 °F 44.6 °F 55% 30.14 in 10.0 mi NNE 11.5 mph - N/A   Overcast
9:20 PM 60.8 °F 44.6 °F 55% 30.14 in 10.0 mi NNE 12.7 mph - N/A   Overcast
9:24 PM 60.8 °F 44.6 °F 55% 30.14 in 10.0 mi NNE 10.4 mph - N/A   Overcast
9:34 PM 60.8 °F 44.6 °F 55% 30.14 in 10.0 mi NNE 11.5 mph - N/A   Overcast
9:36 PM 60.8 °F 44.6 °F 55% 30.16 in 10.0 mi North 10.4 mph - N/A   Overcast
9:46 PM 60.8 °F 44.6 °F 55% 30.15 in 10.0 mi NNE 8.1 mph - N/A   Overcast
9:55 PM 61.2 °F 44.8 °F 55% 30.15 in 10.0 mi North 10.4 mph - N/A   Overcast
10:55 PM 61.0 °F 45.1 °F 56% 30.14 in 10.0 mi North 11.5 mph - N/A   Overcast
11:55 PM 60.6 °F 45.1 °F 57% 30.15 in 10.0 mi NNE 13.8 mph - N/A   Overcast